STARLINK-1153, 45080

Orbit data source: Space-Track

STARLINK-1153, 45080 is a payload satellite owned by SpaceX/Seattle (US) in LEO that was launched on Wed, 29 Jan 2020 UTC via an FALCON 9 launch vehicle from the Air Force Eastern Test Range (AFETR). Payload-class satellites include a variety of spacecraft equipped with specific instruments for various scientific and technological missions. These include communications satellites like Starlink; space stations such as the ISS; scientific satellites like the Hubble; Earth observation satellites from companies like Planet Labs, Umbra, and HawkEye 360; GPS; miniature CubeSats for education and research; and military/defense satellites.

Loading next visibility...
Identifier
45080, 2020-006AN
Orbit
LEO
Country
Flag of USUS
Related business
Manufacturer
SpaceX/Seattle
Mission
Operational Commercial Communications
Bus & Motor
STARLINK, Unknown motor
Mass
260 kg wet, ~248 kg dry
Launch date (UTC)
2020-01-29 (6 years ago)
Launch vehicle
FALCON 9
Launch site
Air Force Eastern Test Range (AFETR)
Object type
Payload
Rocket body
Debris
Shape & HBR
Box + 1 Pan, 10.1 m
Radar Cross Section
13.562 m², Large (>1 m²)

Expand to show TLE details & history
Last TLE update: 14 hours ago

TLE from 14 hours ago
0 STARLINK-1153
1 45080U 20006AN  25293.85672337  .00003206  00000-0  23402-3 0  9992
2 45080  53.0523 174.3544 0002263 138.9178 221.1982 15.06404454315664
Epoch: 2025-10-20T20:33Z
TLE epoch observation values (Epoch: 2025-10-20T20:33:40.899Z)
Latitude
0.00002°
Longitude
-163.61902°
Altitude
549.256 km
Speed
7.588 km/s
True Right ascension
11h 37m 25s
True Declination
0° 00' 00"
Sunlit
Object was in daylight at epoch
Visualization orbit readout
Latitude
Unknown
Longitude
Unknown
Altitude
Unknown
Speed
Unknown
Apparent Right ascension
Unknown
Apparent Declination
Unknown
Sunlit
N/A
Visualization observer readout
Local Sidereal Time
05:31:12
Azimuth
Unknown
Elevation
Unknown
Doppler factor
Unknown
Orbital elements
Apogee altitude
549.036 km
Perigee altitude
545.902 km
Semi-major axis
6,925.606 km
Eccentricity
0.00023
Inclination
53.0523°
RAAN
174.3544°
Arg. of periapsis
138.9178°
True anomaly
221.18112°
Mean anomaly
221.1982°
Eccentric anomaly
221.18966°
Mean motion
3.76579 °/min
Orbital period
95.6 mins
BSTAR
0.00023402
Loading maneuver chart data...
Computing Atmospheric mass density...
Loading historical data...
Loading historical data...
Loading historical data...
Loading historical data...
Loading historical data...
Loading historical data...
Loading historical data...

Documentation

Showing up to 5 results
|